This is the latest recevied weather packets stored in our database for station/object KB8TTR. If no packets are shown the sender has not sent any weather packets the latest 10 day(s).
| Time | Temp. | Humidity | Pressure | Rain* | Wind** | Luminosity | Snow |
|---|---|---|---|---|---|---|---|
| 1788524718 | 21.67° C | 99% | 1018.2 hPa | 16.76 mm | - | 2 W/m² | - |
| 1788524413 | 21.67° C | 99% | 1018.9 hPa | 3.05 mm | - | 1 W/m² | - |
| 1788524109 | 21.67° C | 99% | 1018.2 hPa | 1.78 mm | - | 1 W/m² | - |
| 1788523805 | 21.67° C | 99% | 1016.8 hPa | 1.78 mm | - | 6 W/m² | - |
| 1788523500 | 21.67° C | 99% | 1017.1 hPa | 0 mm | - | 3 W/m² | - |
| 1788523195 | 21.67° C | 99% | 1016.9 hPa | 0 mm | - | 2 W/m² | - |
| 1788522891 | 21.67° C | 99% | 1016.9 hPa | 6.1 mm | - | 3 W/m² | - |
| 1788522590 | 21.67° C | 99% | 1016.9 hPa | 13.21 mm | - | 3 W/m² | - |
| 1788522286 | 21.67° C | 99% | 1016.6 hPa | 19.81 mm | - | 1 W/m² | - |
| 1788521981 | 21.67° C | 99% | 1017 hPa | 25.91 mm | - | 1 W/m² | - |
| 1788521680 | 21.67° C | 99% | 1017 hPa | 15.49 mm | - | 1 W/m² | - |
| 1788521379 | 21.67° C | 99% | 1016.9 hPa | 1.78 mm | - | 1 W/m² | - |
| 1788521076 | 21.11° C | 99% | 1016.5 hPa | 6.1 mm | - | 1 W/m² | - |
| 1788520772 | 21.11° C | 99% | 1016.3 hPa | 10.16 mm | - | 1 W/m² | - |
| 1788520466 | 21.11° C | 99% | 1016.5 hPa | 4.32 mm | - | 0 W/m² | - |
| 1788520162 | 21.11° C | 99% | 1016.6 hPa | 0 mm | - | 1 W/m² | - |
| 1788519860 | 21.11° C | 99% | 1017.1 hPa | 0 mm | - | 3 W/m² | - |
| 1788519556 | 21.11° C | 99% | 1017.2 hPa | 0 mm | - | 2 W/m² | - |
| 1788519251 | 21.11° C | 99% | 1017.1 hPa | 0 mm | - | 1 W/m² | - |
| 1788518947 | 21.11° C | 99% | 1016.9 hPa | 0 mm | - | 0 W/m² | - |
| 1788518641 | 21.11° C | 99% | 1016.7 hPa | 1.78 mm | - | 0 W/m² | - |
| 1788518338 | 21.11° C | 99% | 1016.6 hPa | 1.78 mm | - | 0 W/m² | - |
| 1788518038 | 21.11° C | 99% | 1016.6 hPa | 0 mm | - | 0 W/m² | - |
| 1788517734 | 21.11° C | 99% | 1016.5 hPa | 0 mm | - | 0 W/m² | - |
| 1788517429 | 21.11° C | 99% | 1016.6 hPa | 0 mm | - | 0 W/m² | - |
* Rain latest hour (hover to see other rain measurements)
** Current wind speed in m/s (hover to see current wind gust speed)